Mountain Home, ID

11:10 PM MDT on July 27, 2017 (GMT -0600)
Mountain Home Air Force Base

Weather History for KMUO - October, 2013

Change the Weather History Date:

Thursday, October 10, 2013

  Actual Average Record
Temperature  
Mean Temperature 46 °F 54 °F  
Max Temperature 59 °F 69 °F 92 °F (2015)
Min Temperature 33 °F 37 °F 16 °F (1919)
Degree Days  
Heating Degree Days 19 11  
Month to date heating degree days 152 95  
Cooling Degree Days 0 0  
Month to date cooling degree days 0 2  
Moisture  
Dew Point 32 °F    
Average Humidity 62    
Maximum Humidity 100    
Minimum Humidity 32    
Precipitation  
Precipitation 0.00 in 0.02 in 0.43 in (2011)
Month to date precipitation 0.09 0.20  
Sea Level Pressure  
Sea Level Pressure 29.83 in    
Wind  
Wind Speed 12 mph (WNW)    
Max Wind Speed 29 mph    
Max Gust Speed 33 mph    
Visibility 10 miles    
Events      
T = Trace of Precipitation, MM = Missing Value Source: NWS Daily Summary

Daily Weather History Graph

Daily Weather History Graph

Search for Another Location

Airport or City:

Trip Planner

Search our weather history database for the weather conditions in past years. The results will help you decide how hot, cold, wet, or windy it might be!

Date:

Astronomy

Oct. 10, 2013 Rise Set
Actual Time 7:51 AM MDT 7:08 PM MDT
Civil Twilight 7:23 AM MDT 7:36 PM MDT
Nautical Twilight 6:50 AM MDT 8:09 PM MDT
Astronomical Twilight 6:17 AM MDT 8:42 PM MDT
Moon 1:52 PM MDT (10/10) 11:45 PM MDT (10/10)
Length of Visible Light 12h 13m
Length of Day
11h 16m
Waxing Crescent, 36% of the Moon is Illuminated
Oct 10
Waxing Crescent
Oct 11
First Quarter
Oct 18
Full
Oct 26
Last Quarter
Nov 3
New

Hourly Weather History & Observations

Time (MDT) Temp. Windchill Dew Point Humidity Pressure Visibility Wind Dir Wind Speed Gust Speed Precip Events Conditions
12:58 AM 41.9 °F 36.9 °F 33.1 °F 71% 29.79 in 10.0 mi WNW 8.1 mph - N/A   Mostly Cloudy
1:58 AM 41.9 °F 36.9 °F 33.6 °F 72% 29.79 in 10.0 mi WNW 8.1 mph - N/A   Overcast
2:58 AM 41.9 °F 35.9 °F 33.8 °F 73% 29.78 in 10.0 mi WNW 10.4 mph - N/A   Overcast
3:58 AM 41.0 °F 35.8 °F 33.6 °F 75% 29.78 in 10.0 mi WNW 8.1 mph - N/A   Partly Cloudy
4:58 AM 38.7 °F 34.3 °F 32.4 °F 78% 29.79 in 10.0 mi NW 5.8 mph - N/A   Clear
5:58 AM 35.4 °F 29.0 °F 31.6 °F 86% 29.79 in 10.0 mi WNW 8.1 mph - N/A   Clear
6:58 AM 37.8 °F 30.7 °F 33.4 °F 84% 29.80 in 10.0 mi NW 10.4 mph - N/A   Clear
7:58 AM 33.6 °F 27.5 °F 31.1 °F 90% 29.82 in 10.0 mi WNW 6.9 mph - N/A   Partly Cloudy
7:59 AM 32.0 °F 25.6 °F 32.0 °F 100% 29.82 in 10.0 mi WNW 6.9 mph - N/A   Mostly Cloudy
8:56 AM 36.7 °F 30.5 °F 33.3 °F 87% 29.83 in 7.0 mi West 8.1 mph - N/A   Haze
8:58 AM 36.7 °F 30.5 °F 33.3 °F 87% 29.84 in 7.0 mi WNW 8.1 mph - N/A   Mostly Cloudy
9:58 AM 45.1 °F 37.9 °F 33.8 °F 65% 29.83 in 10.0 mi NW 17.3 mph - N/A   Mostly Cloudy
10:58 AM 50.0 °F - 32.9 °F 52% 29.83 in 10.0 mi NW 25.3 mph 31.1 mph N/A   Mostly Cloudy
11:58 AM 51.1 °F - 33.3 °F 51% 29.82 in 10.0 mi NW 17.3 mph - N/A   Scattered Clouds
12:58 PM 54.1 °F - 31.8 °F 43% 29.81 in 10.0 mi NW 24.2 mph - N/A   Clear
1:58 PM 54.1 °F - 31.5 °F 42% 29.80 in 10.0 mi NW 25.3 mph - N/A   Scattered Clouds
2:58 PM 55.6 °F - 31.1 °F 39% 29.79 in 10.0 mi NW 28.8 mph 33.4 mph N/A   Overcast
3:58 PM 55.8 °F - 29.5 °F 37% 29.80 in 10.0 mi NW 27.6 mph - N/A   Mostly Cloudy
4:58 PM 57.4 °F - 29.5 °F 35% 29.80 in 10.0 mi NW 24.2 mph 28.8 mph N/A   Mostly Cloudy
5:58 PM 58.1 °F - 28.6 °F 32% 29.82 in 10.0 mi NW 26.5 mph 32.2 mph N/A   Scattered Clouds
6:58 PM 54.9 °F - 30.4 °F 39% 29.84 in 10.0 mi NW 17.3 mph - N/A   Clear
7:58 PM 48.7 °F - 30.2 °F 49% 29.88 in 10.0 mi WNW 10.4 mph - N/A   Clear
8:58 PM 43.7 °F 38.1 °F 29.5 °F 57% 29.89 in 10.0 mi WNW 10.4 mph - N/A   Clear
9:58 PM 46.4 °F 42.4 °F 30.2 °F 53% 29.90 in 10.0 mi WNW 8.1 mph - N/A   Clear
10:58 PM 43.2 °F 36.2 °F 29.5 °F 59% 29.91 in 10.0 mi WNW 13.8 mph - N/A   Clear
11:58 PM 44.1 °F 36.2 °F 28.2 °F 54% 29.93 in 10.0 mi WNW 18.4 mph - N/A   Clear